SWR14K LEBL-LSZH

Flight info

Callsign SWR14K
Flight time 1h 16m
Altitude 34000
Route DALIN4F DALIN DCT PIVUS DCT DIBER DCT ADITA DCT MAXIR DCT LUSOL DCT BODRU DCT OKTET DCT IRMAR DCT KINES DCT VANAS DCT MOBLO DCT LAMUR DCT KORED N871 BERSU BERSU2G
Aircraft A320/M-SDE3FGHIRWY/LB1

Departure

Time 2026-05-05 17:21
Airport Josep Tarradellas Barcelona-El Prat Airport (LEBL)

Arrival

Time 2026-05-05 18:37
Airport Zürich Airport (LSZH)
Time Latitude Longitude Altitude Speed Heading
2026-05-05 16:44 41.28805 2.08132 18 ft 0 kts 65°
2026-05-05 17:15 41.28807 2.08137 18 ft 4 kts 65°
2026-05-05 17:15 41.28792 2.08214 19 ft 13 kts 140°
2026-05-05 17:15 41.28710 2.08248 18 ft 11 kts 132°
2026-05-05 17:15 41.28729 2.08340 18 ft 13 kts 65°
2026-05-05 17:16 41.28738 2.08367 19 ft 14 kts 65°
2026-05-05 17:16 41.28775 2.08476 20 ft 14 kts 65°
2026-05-05 17:16 41.28830 2.08640 18 ft 22 kts 66°
2026-05-05 17:17 41.28897 2.08831 18 ft 23 kts 65°
2026-05-05 17:17 41.28964 2.09030 20 ft 24 kts 67°
2026-05-05 17:17 41.29035 2.09241 18 ft 25 kts 64°
2026-05-05 17:17 41.29112 2.09458 18 ft 26 kts 65°
2026-05-05 17:18 41.29189 2.09686 18 ft 28 kts 65°
2026-05-05 17:18 41.29254 2.09881 18 ft 17 kts 66°
2026-05-05 17:18 41.29273 2.10025 17 ft 15 kts 110°
2026-05-05 17:18 41.29234 2.10158 15 ft 16 kts 102°
2026-05-05 17:19 41.29248 2.10278 13 ft 11 kts 121°
2026-05-05 17:19 41.29195 2.10251 14 ft 8 kts 244°
2026-05-05 17:19 41.29190 2.10234 14 ft 0 kts 245°
2026-05-05 17:20 41.29188 2.10228 14 ft 5 kts 245°
2026-05-05 17:20 41.29075 2.09900 16 ft 76 kts 245°
2026-05-05 17:20 41.28766 2.08999 16 ft 135 kts 245°
2026-05-05 17:20 41.28333 2.07743 309 ft 153 kts 244°
2026-05-05 17:21 41.27754 2.06557 896 ft 159 kts 216°
2026-05-05 17:21 41.26681 2.06009 1324 ft 175 kts 196°
2026-05-05 17:21 41.25401 2.05645 1591 ft 199 kts 194°
2026-05-05 17:22 41.22483 2.04875 2750 ft 217 kts 194°
2026-05-05 17:22 41.21000 2.04456 3495 ft 219 kts 195°
2026-05-05 17:22 41.19509 2.04013 4256 ft 220 kts 195°
2026-05-05 17:22 41.18033 2.03410 4904 ft 228 kts 214°
2026-05-05 17:23 41.17481 2.02816 5122 ft 230 kts 232°
2026-05-05 17:23 41.16897 2.00859 5808 ft 235 kts 269°
2026-05-05 17:23 41.17327 1.98785 6565 ft 240 kts 302°
2026-05-05 17:23 41.18357 1.97063 7320 ft 243 kts 307°
2026-05-05 17:24 41.19458 1.95341 8093 ft 245 kts 307°
2026-05-05 17:24 41.20573 1.93613 8875 ft 248 kts 307°
2026-05-05 17:24 41.21698 1.91866 9656 ft 250 kts 307°
2026-05-05 17:24 41.22921 1.90191 10356 ft 257 kts 318°
2026-05-05 17:25 41.24469 1.88812 10649 ft 280 kts 324°
2026-05-05 17:25 41.25601 1.87887 10784 ft 297 kts 328°
2026-05-05 17:25 41.28424 1.86963 11027 ft 337 kts 360°
2026-05-05 17:25 41.30765 1.87765 11255 ft 362 kts 27°
2026-05-05 17:26 41.32698 1.89960 11785 ft 373 kts 53°
2026-05-05 17:26 41.33773 1.93105 12408 ft 378 kts 77°
2026-05-05 17:26 41.34283 1.96561 13094 ft 381 kts 82°
2026-05-05 17:26 41.34603 2.00023 13751 ft 383 kts 90°
2026-05-05 17:27 41.34387 2.03601 14320 ft 384 kts 103°
2026-05-05 17:27 41.33704 2.06987 14892 ft 385 kts 112°
2026-05-05 17:27 41.32634 2.10245 15450 ft 385 kts 121°
2026-05-05 17:27 41.31399 2.13440 15919 ft 392 kts 122°
2026-05-05 17:28 41.30142 2.16689 16451 ft 397 kts 122°
2026-05-05 17:28 41.28869 2.19964 16994 ft 401 kts 123°
2026-05-05 17:28 41.27575 2.23274 17540 ft 405 kts 123°
2026-05-05 17:28 41.26262 2.26609 18089 ft 409 kts 123°
2026-05-05 17:29 41.24931 2.29975 18549 ft 413 kts 124°
2026-05-05 17:29 41.23584 2.33374 19003 ft 418 kts 124°
2026-05-05 17:29 41.22224 2.36801 19483 ft 421 kts 124°
2026-05-05 17:29 41.20850 2.40261 19972 ft 425 kts 124°
2026-05-05 17:30 41.19469 2.43749 20453 ft 428 kts 124°
2026-05-05 17:30 41.18216 2.47380 20909 ft 440 kts 115°
2026-05-05 17:30 41.17587 2.51404 21362 ft 454 kts 99°
2026-05-05 17:30 41.17723 2.55593 21785 ft 467 kts 83°
2026-05-05 17:31 41.18679 2.59746 22194 ft 476 kts 66°
2026-05-05 17:31 41.20418 2.63489 22601 ft 480 kts 49°
2026-05-05 17:31 41.22723 2.66722 22983 ft 483 kts 44°
2026-05-05 17:31 41.25094 2.69914 23297 ft 488 kts 43°
2026-05-05 17:32 41.27488 2.73140 23622 ft 492 kts 43°
2026-05-05 17:32 41.29900 2.76398 23931 ft 495 kts 43°
2026-05-05 17:32 41.32324 2.79675 24289 ft 498 kts 44°
2026-05-05 17:32 41.34756 2.82965 24636 ft 500 kts 44°
2026-05-05 17:33 41.37192 2.86270 24959 ft 502 kts 44°
2026-05-05 17:33 41.39644 2.89602 25266 ft 505 kts 44°
2026-05-05 17:33 41.42108 2.92951 25560 ft 507 kts 44°
2026-05-05 17:33 41.44590 2.96325 25850 ft 510 kts 44°
2026-05-05 17:34 41.47080 2.99713 26138 ft 513 kts 44°
2026-05-05 17:34 41.49580 3.03121 26420 ft 516 kts 44°
2026-05-05 17:34 41.52095 3.06554 26656 ft 518 kts 44°
2026-05-05 17:34 41.54618 3.10003 26993 ft 520 kts 44°
2026-05-05 17:35 41.57150 3.13467 27247 ft 523 kts 44°
2026-05-05 17:35 41.59695 3.16952 27510 ft 525 kts 44°
2026-05-05 17:35 41.62254 3.20461 27763 ft 528 kts 44°
2026-05-05 17:35 41.64823 3.23989 28001 ft 530 kts 44°
2026-05-05 17:36 41.67401 3.27534 28236 ft 533 kts 44°
2026-05-05 17:36 41.69984 3.31097 28468 ft 535 kts 45°
2026-05-05 17:36 41.72356 3.34871 28683 ft 538 kts 54°
2026-05-05 17:36 41.74374 3.39093 28925 ft 539 kts 63°
2026-05-05 17:37 41.75999 3.43635 29120 ft 540 kts 68°
2026-05-05 17:37 41.77026 3.46743 29274 ft 541 kts 68°
2026-05-05 17:37 41.79055 3.52859 29599 ft 542 kts 68°
2026-05-05 17:37 41.80587 3.57468 29888 ft 542 kts 68°
2026-05-05 17:38 41.82124 3.62092 30138 ft 543 kts 68°
2026-05-05 17:38 41.83654 3.66720 30389 ft 542 kts 69°
2026-05-05 17:38 41.85177 3.71346 30651 ft 542 kts 69°
2026-05-05 17:38 41.86696 3.75964 30921 ft 541 kts 69°
2026-05-05 17:39 41.88211 3.80579 31183 ft 540 kts 69°
2026-05-05 17:39 41.89723 3.85195 31437 ft 539 kts 69°
2026-05-05 17:39 41.91208 3.89741 31702 ft 538 kts 69°
2026-05-05 17:39 41.92710 3.94344 32021 ft 537 kts 69°
2026-05-05 17:40 41.94207 3.98941 32307 ft 536 kts 69°
2026-05-05 17:40 41.95700 4.03531 32575 ft 535 kts 70°
2026-05-05 17:40 41.97190 4.08113 32843 ft 535 kts 70°
2026-05-05 17:40 41.98678 4.12692 33118 ft 534 kts 70°
2026-05-05 17:41 42.00162 4.17258 33389 ft 533 kts 70°
2026-05-05 17:41 42.01646 4.21828 33613 ft 533 kts 70°
2026-05-05 17:41 42.03128 4.26402 33824 ft 534 kts 70°
2026-05-05 17:42 42.06118 4.35557 33898 ft 536 kts 66°
2026-05-05 17:42 42.10268 4.43921 33899 ft 540 kts 48°
2026-05-05 17:43 42.15742 4.50846 33896 ft 540 kts 40°
2026-05-05 17:43 42.21360 4.57583 33862 ft 540 kts 41°
2026-05-05 17:44 42.26936 4.64310 33905 ft 541 kts 41°
2026-05-05 17:44 42.32544 4.71092 33931 ft 541 kts 41°
2026-05-05 17:45 42.38145 4.77903 33929 ft 541 kts 41°
2026-05-05 17:45 42.43723 4.84708 33919 ft 541 kts 41°
2026-05-05 17:46 42.49317 4.91531 33909 ft 540 kts 41°
2026-05-05 17:46 42.54912 4.98358 33895 ft 541 kts 41°
2026-05-05 17:47 42.60494 5.05198 33900 ft 541 kts 41°
2026-05-05 17:47 42.66084 5.12074 33894 ft 542 kts 41°
2026-05-05 17:48 42.70721 5.17797 33902 ft 542 kts 41°
2026-05-05 17:48 42.76303 5.24702 33904 ft 542 kts 41°
2026-05-05 17:49 42.82783 5.32714 33919 ft 542 kts 41°
2026-05-05 17:49 42.87452 5.38505 33896 ft 541 kts 41°
2026-05-05 17:50 42.93015 5.45429 33933 ft 541 kts 41°
2026-05-05 17:50 42.98538 5.52313 33932 ft 541 kts 41°
2026-05-05 17:51 43.04086 5.59257 33930 ft 541 kts 42°
2026-05-05 17:51 43.09632 5.66225 33957 ft 541 kts 42°
2026-05-05 17:52 43.15175 5.73207 33912 ft 540 kts 42°
2026-05-05 17:52 43.20704 5.80172 33935 ft 540 kts 42°
2026-05-05 17:53 43.26244 5.87161 33937 ft 540 kts 42°
2026-05-05 17:53 43.31758 5.94156 33957 ft 540 kts 42°
2026-05-05 17:54 43.37707 6.00312 33926 ft 535 kts 25°
2026-05-05 17:54 43.44498 6.03996 33916 ft 523 kts
2026-05-05 17:55 43.51616 6.05278 33929 ft 512 kts 356°
2026-05-05 17:55 43.58729 6.05988 33919 ft 513 kts 356°
2026-05-05 17:56 43.65855 6.06706 33928 ft 513 kts 357°
2026-05-05 17:56 43.72978 6.07453 33941 ft 515 kts 360°
2026-05-05 17:57 43.80014 6.09879 33909 ft 529 kts 18°
2026-05-05 17:57 43.86690 6.14336 33947 ft 533 kts 22°
2026-05-05 17:58 43.93297 6.18863 33944 ft 533 kts 22°
2026-05-05 17:58 43.99957 6.23408 33947 ft 533 kts 22°
2026-05-05 17:59 44.06609 6.27958 33978 ft 532 kts 22°
2026-05-05 17:59 44.13240 6.32520 33966 ft 531 kts 22°
2026-05-05 18:00 44.19866 6.37080 33959 ft 531 kts 22°
2026-05-05 18:00 44.26480 6.41645 33965 ft 530 kts 22°
2026-05-05 18:01 44.33084 6.46224 33961 ft 530 kts 22°
2026-05-05 18:01 44.39676 6.50806 33913 ft 528 kts 22°
2026-05-05 18:02 44.46224 6.55364 33953 ft 529 kts 22°
2026-05-05 18:02 44.52801 6.59947 33951 ft 528 kts 22°
2026-05-05 18:03 44.59372 6.64545 33932 ft 527 kts 22°
2026-05-05 18:03 44.65941 6.69147 33927 ft 527 kts 23°
2026-05-05 18:04 44.72496 6.73756 33934 ft 527 kts 22°
2026-05-05 18:04 44.79256 6.77478 33926 ft 516 kts
2026-05-05 18:05 44.86266 6.78614 33927 ft 499 kts 351°
2026-05-05 18:05 44.93179 6.78171 33928 ft 497 kts 349°
2026-05-05 18:06 45.00042 6.77715 33932 ft 496 kts 349°
2026-05-05 18:06 45.06943 6.77262 33936 ft 496 kts 349°
2026-05-05 18:07 45.13832 6.76803 33925 ft 496 kts 349°
2026-05-05 18:07 45.20715 6.76351 33942 ft 495 kts 350°
2026-05-05 18:08 45.27589 6.75898 33947 ft 493 kts 350°
2026-05-05 18:08 45.34435 6.75442 33940 ft 492 kts 350°
2026-05-05 18:09 45.41277 6.74979 33949 ft 491 kts 350°
2026-05-05 18:09 45.48103 6.74521 33939 ft 490 kts 350°
2026-05-05 18:10 45.54917 6.74061 33931 ft 490 kts 351°
2026-05-05 18:10 45.61678 6.73591 33943 ft 489 kts 351°
2026-05-05 18:11 45.68473 6.73125 33930 ft 487 kts 351°
2026-05-05 18:11 45.75253 6.72658 33931 ft 488 kts 351°
2026-05-05 18:12 45.82088 6.73613 33959 ft 501 kts 10°
2026-05-05 18:12 45.88621 6.77238 33952 ft 506 kts 21°
2026-05-05 18:13 45.95029 6.81434 33934 ft 505 kts 21°
2026-05-05 18:13 46.01424 6.85625 33942 ft 504 kts 21°
2026-05-05 18:14 46.07802 6.89809 33937 ft 503 kts 21°
2026-05-05 18:14 46.14169 6.93999 33932 ft 502 kts 21°
2026-05-05 18:15 46.20475 6.98156 33945 ft 501 kts 22°
2026-05-05 18:15 46.26801 7.02343 33944 ft 499 kts 22°
2026-05-05 18:16 46.33112 7.06531 33946 ft 499 kts 22°
2026-05-05 18:16 46.39412 7.10716 33942 ft 498 kts 22°
2026-05-05 18:17 46.45705 7.14906 33946 ft 497 kts 22°
2026-05-05 18:17 46.51986 7.19103 33925 ft 497 kts 22°
2026-05-05 18:17 46.55093 7.21189 33419 ft 497 kts 22°
2026-05-05 18:18 46.58260 7.23318 32117 ft 506 kts 23°
2026-05-05 18:18 46.61422 7.25444 31190 ft 494 kts 23°
2026-05-05 18:18 46.64506 7.27526 30216 ft 486 kts 23°
2026-05-05 18:18 46.67559 7.29588 29071 ft 480 kts 23°
2026-05-05 18:19 46.70559 7.31613 28589 ft 472 kts 23°
2026-05-05 18:19 46.73530 7.33620 27909 ft 468 kts 23°
2026-05-05 18:19 46.76474 7.35612 27264 ft 465 kts 24°
2026-05-05 18:19 46.79400 7.37596 26613 ft 462 kts 24°
2026-05-05 18:20 46.82258 7.39687 25988 ft 459 kts 30°
2026-05-05 18:20 46.84875 7.42316 25369 ft 456 kts 39°
2026-05-05 18:20 46.87187 7.45469 24744 ft 452 kts 48°
2026-05-05 18:20 46.89179 7.48999 24133 ft 449 kts 52°
2026-05-05 18:21 46.91111 7.52561 23556 ft 445 kts 52°
2026-05-05 18:21 46.93031 7.56097 22899 ft 442 kts 52°
2026-05-05 18:21 46.94935 7.59605 22343 ft 437 kts 52°
2026-05-05 18:21 46.96816 7.63075 21793 ft 433 kts 52°
2026-05-05 18:22 46.98681 7.66512 21287 ft 428 kts 52°
2026-05-05 18:22 47.00526 7.69912 20785 ft 424 kts 52°
2026-05-05 18:22 47.02350 7.73280 20302 ft 420 kts 52°
2026-05-05 18:22 47.04156 7.76625 19845 ft 417 kts 52°
2026-05-05 18:23 47.05947 7.79946 19388 ft 413 kts 52°
2026-05-05 18:23 47.07719 7.83237 18937 ft 410 kts 52°
2026-05-05 18:23 47.09476 7.86511 18478 ft 407 kts 52°
2026-05-05 18:23 47.11196 7.89724 17991 ft 404 kts 52°
2026-05-05 18:24 47.12912 7.92979 17506 ft 401 kts 56°
2026-05-05 18:24 47.14322 7.96476 17026 ft 396 kts 65°
2026-05-05 18:24 47.15488 8.00124 16557 ft 393 kts 66°
2026-05-05 18:24 47.16642 8.03748 16057 ft 391 kts 66°
2026-05-05 18:25 47.17794 8.07358 15578 ft 389 kts 66°
2026-05-05 18:25 47.18555 8.09742 15238 ft 388 kts 66°
2026-05-05 18:25 47.20126 8.14536 14428 ft 391 kts 60°
2026-05-05 18:25 47.21863 8.17610 13818 ft 393 kts 39°
2026-05-05 18:26 47.24197 8.19626 13154 ft 390 kts 17°
2026-05-05 18:26 47.26826 8.20338 12594 ft 381 kts 356°
2026-05-05 18:26 47.29390 8.19756 12068 ft 368 kts 336°
2026-05-05 18:26 47.31680 8.18204 11576 ft 361 kts 329°
2026-05-05 18:27 47.33905 8.16557 10974 ft 355 kts 328°
2026-05-05 18:27 47.36101 8.14918 10556 ft 349 kts 328°
2026-05-05 18:27 47.38224 8.13332 10426 ft 334 kts 328°
2026-05-05 18:27 47.40219 8.11847 10301 ft 308 kts 328°
2026-05-05 18:28 47.43764 8.09211 10024 ft 269 kts 327°
2026-05-05 18:28 47.45566 8.08418 9616 ft 271 kts 354°
2026-05-05 18:28 47.47439 8.08815 9181 ft 276 kts 11°
2026-05-05 18:29 47.49268 8.09591 8680 ft 279 kts 13°
2026-05-05 18:29 47.51155 8.10446 8148 ft 280 kts 13°
2026-05-05 18:29 47.52977 8.11283 7653 ft 276 kts 13°
2026-05-05 18:29 47.54800 8.12122 7155 ft 273 kts 14°
2026-05-05 18:30 47.56625 8.12955 6668 ft 270 kts 13°
2026-05-05 18:30 47.58388 8.13874 6166 ft 269 kts 27°
2026-05-05 18:30 47.59710 8.15684 6006 ft 263 kts 57°
2026-05-05 18:30 47.60540 8.18101 6002 ft 263 kts 76°
2026-05-05 18:31 47.60913 8.20751 6015 ft 263 kts 83°
2026-05-05 18:31 47.61193 8.23435 6008 ft 263 kts 83°
2026-05-05 18:31 47.61459 8.26113 6008 ft 262 kts 83°
2026-05-05 18:31 47.61723 8.28801 5778 ft 264 kts 83°
2026-05-05 18:32 47.61978 8.31514 5365 ft 267 kts 86°
2026-05-05 18:32 47.61797 8.34219 4945 ft 264 kts 109°
2026-05-05 18:32 47.61188 8.36730 4584 ft 251 kts 122°
2026-05-05 18:32 47.60041 8.38364 4460 ft 217 kts 161°
2026-05-05 18:33 47.58700 8.39202 4239 ft 205 kts 151°
2026-05-05 18:33 47.57651 8.40615 4000 ft 203 kts 140°
2026-05-05 18:33 47.56644 8.42042 3714 ft 199 kts 141°
2026-05-05 18:33 47.55638 8.43430 3448 ft 197 kts 142°
2026-05-05 18:34 47.54976 8.44340 3278 ft 196 kts 141°
2026-05-05 18:34 47.53979 8.45707 3030 ft 193 kts 140°
2026-05-05 18:34 47.53030 8.47010 2779 ft 175 kts 140°
2026-05-05 18:34 47.51920 8.48532 2467 ft 155 kts 140°
2026-05-05 18:35 47.51395 8.49250 2325 ft 150 kts 140°
2026-05-05 18:35 47.50640 8.50282 2110 ft 146 kts 139°
2026-05-05 18:35 47.49897 8.51298 1902 ft 144 kts 139°
2026-05-05 18:35 47.49170 8.52288 1715 ft 144 kts 138°
2026-05-05 18:36 47.48444 8.53288 1529 ft 142 kts 139°
2026-05-05 18:36 47.47732 8.54249 1398 ft 128 kts 139°
2026-05-05 18:36 47.47199 8.54979 1395 ft 80 kts 137°
2026-05-05 18:36 47.46845 8.55463 1397 ft 62 kts 137°
2026-05-05 18:37 47.46553 8.55846 1393 ft 52 kts 148°
2026-05-05 18:37 47.46380 8.55945 1404 ft 0 kts 162°
2026-05-05 18:38 47.46349 8.55961 1405 ft 9 kts 161°
2026-05-05 18:38 47.46324 8.55971 1400 ft 0 kts 165°
2026-05-05 18:38 47.46282 8.55988 1398 ft 13 kts 165°
2026-05-05 18:38 47.46191 8.56003 1399 ft 13 kts 179°
2026-05-05 18:39 47.46099 8.55991 1405 ft 13 kts 186°
2026-05-05 18:39 47.46006 8.55976 1402 ft 14 kts 186°
2026-05-05 18:39 47.45907 8.55938 1401 ft 16 kts 201°
2026-05-05 18:39 47.45830 8.55897 1408 ft 0 kts 200°
2026-05-05 18:41 47.45823 8.55893 1407 ft 6 kts 199°
2026-05-05 18:41 47.45741 8.55869 1402 ft 13 kts 187°
2026-05-05 18:41 47.45682 8.55862 1401 ft 0 kts 186°
2026-05-05 18:42 47.45673 8.55860 1398 ft 7 kts 186°
2026-05-05 18:42 47.45583 8.55845 1402 ft 15 kts 187°
2026-05-05 18:42 47.45499 8.55814 1400 ft 9 kts 193°
2026-05-05 18:42 47.45434 8.55803 1397 ft 10 kts 186°
2026-05-05 18:43 47.45424 8.55802 1397 ft 0 kts 186°